<?xml version="1.0" encoding="UTF-8" standalone="no" ?>
<gpx xmlns="http://www.topografix.com/GPX/1/1" xmlns:xsi="http://www.w3.org/2001/XMLSchema-instance" xsi:schemaLocation="http://www.topografix.com/GPX/1/1 http://www.topografix.com/GPX/1/1/gpx.xsd" version="1.1" creator="VisuGPX - https://www.visugpx.com">
  <metadata>
    <name>Etape_10,_Clonas_sur_Vareze,_St_Julien_Molin_Mole </name>
    <desc><![CDATA[<html dir="ltr"><head></head><body contenteditable="true">comment ...</body></html>]]></desc>
  </metadata>
  <trk>
    <name><![CDATA[Etape 10, Clonas sur Vareze, St Julien Molin Molette, 26 km]]></name>
    <desc><![CDATA[<html dir="ltr"><head></head><body contenteditable="true">comment ...</body></html>]]></desc>
    <extensions>
      <line xmlns="http://www.topografix.com/GPX/gpx_style/0/2">
        <color>0000FF</color>
        <width>4</width>
      </line>
    </extensions>
    <trkseg>
      <trkpt lat="45.41342" lon="4.79661">
        <ele>234</ele>
        <time>2023-06-03T14:33:06Z</time>
      </trkpt>
      <trkpt lat="45.41342" lon="4.79661">
        <ele>234</ele>
        <time>2023-06-03T14:33:06Z</time>
      </trkpt>
      <trkpt lat="45.41334" lon="4.79653">
        <ele>234</ele>
        <time>2023-06-03T14:33:06Z</time>
      </trkpt>
      <trkpt lat="45.41333" lon="4.79633">
        <ele>234</ele>
        <time>2023-06-03T14:33:06Z</time>
      </trkpt>
      <trkpt lat="45.41341" lon="4.7961">
        <ele>234</ele>
        <time>2023-06-03T14:33:06Z</time>
      </trkpt>
      <trkpt lat="45.4135" lon="4.796">
        <ele>234</ele>
        <time>2023-06-03T14:33:06Z</time>
      </trkpt>
      <trkpt lat="45.41406" lon="4.79484">
        <ele>234</ele>
      </trkpt>
      <trkpt lat="45.41461" lon="4.79368">
        <ele>231</ele>
        <time>2023-06-03T14:33:06Z</time>
      </trkpt>
      <trkpt lat="45.41465" lon="4.7935">
        <ele>229</ele>
        <time>2023-06-03T14:33:06Z</time>
      </trkpt>
      <trkpt lat="45.41493" lon="4.79293">
        <ele>224</ele>
        <time>2023-06-03T14:33:06Z</time>
      </trkpt>
      <trkpt lat="45.41513" lon="4.79205">
        <ele>217</ele>
        <time>2023-06-03T14:33:06Z</time>
      </trkpt>
      <trkpt lat="45.41512" lon="4.7914">
        <ele>211</ele>
        <time>2023-06-03T14:33:06Z</time>
      </trkpt>
      <trkpt lat="45.41497" lon="4.79121">
        <ele>207</ele>
        <time>2023-06-03T14:33:06Z</time>
      </trkpt>
      <trkpt lat="45.41493" lon="4.79109">
        <ele>204</ele>
        <time>2023-06-03T14:33:06Z</time>
      </trkpt>
      <trkpt lat="45.41531" lon="4.79081">
        <ele>200</ele>
        <time>2023-06-03T14:33:06Z</time>
      </trkpt>
      <trkpt lat="45.41567" lon="4.78995">
        <ele>197</ele>
        <time>2023-06-03T14:33:06Z</time>
      </trkpt>
      <trkpt lat="45.4158" lon="4.78978">
        <ele>194</ele>
        <time>2023-06-03T14:33:06Z</time>
      </trkpt>
      <trkpt lat="45.4158" lon="4.78978">
        <ele>184</ele>
        <time>2023-06-03T14:33:06Z</time>
      </trkpt>
      <trkpt lat="45.41589" lon="4.78975">
        <ele>184</ele>
        <time>2023-06-03T14:33:06Z</time>
      </trkpt>
      <trkpt lat="45.41623" lon="4.78921">
        <ele>184</ele>
        <time>2023-06-03T14:33:06Z</time>
      </trkpt>
      <trkpt lat="45.41636" lon="4.78791">
        <ele>180</ele>
        <time>2023-06-03T14:33:06Z</time>
      </trkpt>
      <trkpt lat="45.41652" lon="4.78719">
        <ele>176</ele>
      </trkpt>
      <trkpt lat="45.41667" lon="4.78647">
        <ele>173</ele>
      </trkpt>
      <trkpt lat="45.41699" lon="4.78503">
        <ele>170</ele>
      </trkpt>
      <trkpt lat="45.4173" lon="4.78358">
        <ele>168</ele>
      </trkpt>
      <trkpt lat="45.41761" lon="4.78214">
        <ele>166</ele>
        <time>2023-06-03T14:33:06Z</time>
      </trkpt>
      <trkpt lat="45.41761" lon="4.78214">
        <ele>163</ele>
        <time>2023-06-03T14:33:06Z</time>
      </trkpt>
      <trkpt lat="45.41762" lon="4.78199">
        <ele>163</ele>
        <time>2023-06-03T14:33:06Z</time>
      </trkpt>
      <trkpt lat="45.41733" lon="4.78057">
        <ele>163</ele>
        <time>2023-06-03T14:33:06Z</time>
      </trkpt>
      <trkpt lat="45.41689" lon="4.77925">
        <ele>163</ele>
      </trkpt>
      <trkpt lat="45.41644" lon="4.77794">
        <ele>162</ele>
        <time>2023-06-03T14:33:06Z</time>
      </trkpt>
      <trkpt lat="45.41628" lon="4.77771">
        <ele>162</ele>
        <time>2023-06-03T14:33:06Z</time>
      </trkpt>
      <trkpt lat="45.41578" lon="4.77799">
        <ele>162</ele>
        <time>2023-06-03T14:33:06Z</time>
      </trkpt>
      <trkpt lat="45.41578" lon="4.77779">
        <ele>162</ele>
        <time>2023-06-03T14:33:06Z</time>
      </trkpt>
      <trkpt lat="45.41586" lon="4.77748">
        <ele>162</ele>
        <time>2023-06-03T14:33:06Z</time>
      </trkpt>
      <trkpt lat="45.41587" lon="4.77728">
        <ele>162</ele>
        <time>2023-06-03T14:33:06Z</time>
      </trkpt>
      <trkpt lat="45.41542" lon="4.77633">
        <ele>161</ele>
        <time>2023-06-03T14:33:06Z</time>
      </trkpt>
      <trkpt lat="45.41514" lon="4.77528">
        <ele>161</ele>
        <time>2023-06-03T14:33:06Z</time>
      </trkpt>
      <trkpt lat="45.41514" lon="4.77528">
        <ele>159</ele>
        <time>2023-06-03T14:33:06Z</time>
      </trkpt>
      <trkpt lat="45.41524" lon="4.77563">
        <ele>159</ele>
        <time>2023-06-03T14:33:06Z</time>
      </trkpt>
      <trkpt lat="45.41472" lon="4.77547">
        <ele>159</ele>
      </trkpt>
      <trkpt lat="45.4142" lon="4.77531">
        <ele>159</ele>
        <time>2023-06-03T14:33:06Z</time>
      </trkpt>
      <trkpt lat="45.41409" lon="4.77545">
        <ele>160</ele>
        <time>2023-06-03T14:33:06Z</time>
      </trkpt>
      <trkpt lat="45.41386" lon="4.77431">
        <ele>161</ele>
      </trkpt>
      <trkpt lat="45.41363" lon="4.77317">
        <ele>162</ele>
      </trkpt>
      <trkpt lat="45.41339" lon="4.77203">
        <ele>162</ele>
      </trkpt>
      <trkpt lat="45.41316" lon="4.77089">
        <ele>163</ele>
        <time>2023-06-03T14:33:06Z</time>
      </trkpt>
      <trkpt lat="45.41319" lon="4.77067">
        <ele>163</ele>
        <time>2023-06-03T14:33:06Z</time>
      </trkpt>
      <trkpt lat="45.41325" lon="4.7705">
        <ele>163</ele>
        <time>2023-06-03T14:33:06Z</time>
      </trkpt>
      <trkpt lat="45.41332" lon="4.77041">
        <ele>163</ele>
        <time>2023-06-03T14:33:06Z</time>
      </trkpt>
      <trkpt lat="45.41344" lon="4.77031">
        <ele>163</ele>
        <time>2023-06-03T14:33:06Z</time>
      </trkpt>
      <trkpt lat="45.41441" lon="4.7699">
        <ele>162</ele>
        <time>2023-06-03T14:33:06Z</time>
      </trkpt>
      <trkpt lat="45.41433" lon="4.76931">
        <ele>161</ele>
        <time>2023-06-03T14:33:06Z</time>
      </trkpt>
      <trkpt lat="45.41433" lon="4.76931">
        <ele>158</ele>
        <time>2023-06-03T14:33:06Z</time>
      </trkpt>
      <trkpt lat="45.41419" lon="4.76829">
        <ele>158</ele>
        <time>2023-06-03T14:33:06Z</time>
      </trkpt>
      <trkpt lat="45.41425" lon="4.76752">
        <ele>157</ele>
      </trkpt>
      <trkpt lat="45.41431" lon="4.76676">
        <ele>157</ele>
      </trkpt>
      <trkpt lat="45.41436" lon="4.76599">
        <ele>157</ele>
      </trkpt>
      <trkpt lat="45.41442" lon="4.76522">
        <ele>157</ele>
        <time>2023-06-03T14:33:06Z</time>
      </trkpt>
      <trkpt lat="45.41498" lon="4.76484">
        <ele>158</ele>
      </trkpt>
      <trkpt lat="45.41554" lon="4.76445">
        <ele>158</ele>
        <time>2023-06-03T14:33:06Z</time>
      </trkpt>
      <trkpt lat="45.41565" lon="4.76424">
        <ele>157</ele>
        <time>2023-06-03T14:33:06Z</time>
      </trkpt>
      <trkpt lat="45.41569" lon="4.76408">
        <ele>157</ele>
        <time>2023-06-03T14:33:06Z</time>
      </trkpt>
      <trkpt lat="45.4157" lon="4.76361">
        <ele>157</ele>
        <time>2023-06-03T14:33:06Z</time>
      </trkpt>
      <trkpt lat="45.41573" lon="4.76343">
        <ele>156</ele>
        <time>2023-06-03T14:33:06Z</time>
      </trkpt>
      <trkpt lat="45.41583" lon="4.76326">
        <ele>156</ele>
        <time>2023-06-03T14:33:06Z</time>
      </trkpt>
      <trkpt lat="45.41598" lon="4.76318">
        <ele>156</ele>
        <time>2023-06-03T14:33:06Z</time>
      </trkpt>
      <trkpt lat="45.41598" lon="4.76318">
        <ele>155</ele>
        <time>2023-06-03T14:33:06Z</time>
      </trkpt>
      <trkpt lat="45.41657" lon="4.7631">
        <ele>155</ele>
        <time>2023-06-03T14:33:06Z</time>
      </trkpt>
      <trkpt lat="45.41704" lon="4.76274">
        <ele>156</ele>
        <time>2023-06-03T14:33:06Z</time>
      </trkpt>
      <trkpt lat="45.41695" lon="4.76191">
        <ele>156</ele>
      </trkpt>
      <trkpt lat="45.41685" lon="4.76108">
        <ele>156</ele>
        <time>2023-06-03T14:33:06Z</time>
      </trkpt>
      <trkpt lat="45.41686" lon="4.76091">
        <ele>157</ele>
        <time>2023-06-03T14:33:06Z</time>
      </trkpt>
      <trkpt lat="45.41671" lon="4.75993">
        <ele>157</ele>
      </trkpt>
      <trkpt lat="45.41655" lon="4.75895">
        <ele>157</ele>
        <time>2023-06-03T14:33:06Z</time>
      </trkpt>
      <trkpt lat="45.41662" lon="4.75864">
        <ele>157</ele>
        <time>2023-06-03T14:33:06Z</time>
      </trkpt>
      <trkpt lat="45.41697" lon="4.75803">
        <ele>157</ele>
        <time>2023-06-03T14:33:06Z</time>
      </trkpt>
      <trkpt lat="45.41705" lon="4.75794">
        <ele>157</ele>
        <time>2023-06-03T14:33:06Z</time>
      </trkpt>
      <trkpt lat="45.41772" lon="4.75755">
        <ele>157</ele>
        <time>2023-06-03T14:33:06Z</time>
      </trkpt>
      <trkpt lat="45.41752" lon="4.75757">
        <ele>157</ele>
        <time>2023-06-03T14:33:06Z</time>
      </trkpt>
      <trkpt lat="45.41704" lon="4.75774">
        <ele>156</ele>
        <time>2023-06-03T14:33:06Z</time>
      </trkpt>
      <trkpt lat="45.41687" lon="4.75788">
        <ele>155</ele>
        <time>2023-06-03T14:33:06Z</time>
      </trkpt>
      <trkpt lat="45.41668" lon="4.75822">
        <ele>154</ele>
        <time>2023-06-03T14:33:06Z</time>
      </trkpt>
      <trkpt lat="45.4166" lon="4.75827">
        <ele>153</ele>
        <time>2023-06-03T14:33:06Z</time>
      </trkpt>
      <trkpt lat="45.41678" lon="4.75777">
        <ele>152</ele>
        <time>2023-06-03T14:33:06Z</time>
      </trkpt>
      <trkpt lat="45.4169" lon="4.75689">
        <ele>150</ele>
        <time>2023-06-03T14:33:06Z</time>
      </trkpt>
      <trkpt lat="45.41702" lon="4.75561">
        <ele>148</ele>
      </trkpt>
      <trkpt lat="45.41713" lon="4.75432">
        <ele>147</ele>
        <time>2023-06-03T14:33:06Z</time>
      </trkpt>
      <trkpt lat="45.41704" lon="4.75336">
        <ele>145</ele>
      </trkpt>
      <trkpt lat="45.41695" lon="4.75239">
        <ele>145</ele>
        <time>2023-06-03T14:33:06Z</time>
      </trkpt>
      <trkpt lat="45.41683" lon="4.75209">
        <ele>144</ele>
        <time>2023-06-03T14:33:06Z</time>
      </trkpt>
      <trkpt lat="45.41676" lon="4.75197">
        <ele>144</ele>
        <time>2023-06-03T14:33:06Z</time>
      </trkpt>
      <trkpt lat="45.41628" lon="4.7516">
        <ele>144</ele>
      </trkpt>
      <trkpt lat="45.41579" lon="4.75123">
        <ele>143</ele>
        <time>2023-06-03T14:33:06Z</time>
      </trkpt>
      <trkpt lat="45.41479" lon="4.751">
        <ele>143</ele>
        <time>2023-06-03T14:33:06Z</time>
      </trkpt>
      <trkpt lat="45.41471" lon="4.751">
        <ele>143</ele>
        <time>2023-06-03T14:33:06Z</time>
      </trkpt>
      <trkpt lat="45.41462" lon="4.75053">
        <ele>143</ele>
        <time>2023-06-03T14:33:06Z</time>
      </trkpt>
      <trkpt lat="45.41444" lon="4.74985">
        <ele>143</ele>
      </trkpt>
      <trkpt lat="45.41427" lon="4.74918">
        <ele>144</ele>
      </trkpt>
      <trkpt lat="45.41409" lon="4.7485">
        <ele>144</ele>
      </trkpt>
      <trkpt lat="45.41392" lon="4.74782">
        <ele>144</ele>
      </trkpt>
      <trkpt lat="45.41374" lon="4.74715">
        <ele>144</ele>
      </trkpt>
      <trkpt lat="45.41356" lon="4.74647">
        <ele>145</ele>
      </trkpt>
      <trkpt lat="45.41339" lon="4.7458">
        <ele>146</ele>
      </trkpt>
      <trkpt lat="45.41321" lon="4.74512">
        <ele>146</ele>
        <time>2023-06-03T14:33:06Z</time>
      </trkpt>
      <trkpt lat="45.41308" lon="4.74429">
        <ele>145</ele>
      </trkpt>
      <trkpt lat="45.41296" lon="4.74345">
        <ele>145</ele>
      </trkpt>
      <trkpt lat="45.41283" lon="4.74262">
        <ele>145</ele>
      </trkpt>
      <trkpt lat="45.4127" lon="4.74179">
        <ele>144</ele>
      </trkpt>
      <trkpt lat="45.41257" lon="4.74096">
        <ele>144</ele>
      </trkpt>
      <trkpt lat="45.41245" lon="4.74012">
        <ele>146</ele>
      </trkpt>
      <trkpt lat="45.41232" lon="4.73929">
        <ele>146</ele>
      </trkpt>
      <trkpt lat="45.41219" lon="4.73846">
        <ele>146</ele>
        <time>2023-06-03T14:33:06Z</time>
      </trkpt>
      <trkpt lat="45.41219" lon="4.73846">
        <ele>144</ele>
        <time>2023-06-03T14:33:06Z</time>
      </trkpt>
      <trkpt lat="45.41215" lon="4.73777">
        <ele>144</ele>
        <time>2023-06-03T14:33:06Z</time>
      </trkpt>
      <trkpt lat="45.41254" lon="4.73746">
        <ele>144</ele>
        <time>2023-06-03T14:33:06Z</time>
      </trkpt>
      <trkpt lat="45.41327" lon="4.73743">
        <ele>144</ele>
      </trkpt>
      <trkpt lat="45.41399" lon="4.73739">
        <ele>144</ele>
        <time>2023-06-03T14:33:06Z</time>
      </trkpt>
      <trkpt lat="45.41403" lon="4.73752">
        <ele>145</ele>
        <time>2023-06-03T14:33:06Z</time>
      </trkpt>
      <trkpt lat="45.41403" lon="4.73762">
        <ele>145</ele>
        <time>2023-06-03T14:33:06Z</time>
      </trkpt>
      <trkpt lat="45.41403" lon="4.73762">
        <ele>146</ele>
        <time>2023-06-03T14:33:06Z</time>
      </trkpt>
      <trkpt lat="45.41399" lon="4.73739">
        <ele>146</ele>
        <time>2023-06-03T14:33:06Z</time>
      </trkpt>
      <trkpt lat="45.41301" lon="4.73743">
        <ele>145</ele>
        <time>2023-06-03T14:33:06Z</time>
      </trkpt>
      <trkpt lat="45.41301" lon="4.73711">
        <ele>145</ele>
        <time>2023-06-03T14:33:06Z</time>
      </trkpt>
      <trkpt lat="45.41376" lon="4.73714">
        <ele>145</ele>
        <time>2023-06-03T14:33:06Z</time>
      </trkpt>
      <trkpt lat="45.41368" lon="4.73649">
        <ele>145</ele>
        <time>2023-06-03T14:33:06Z</time>
      </trkpt>
      <trkpt lat="45.41381" lon="4.73646">
        <ele>146</ele>
        <time>2023-06-03T14:33:06Z</time>
      </trkpt>
      <trkpt lat="45.41383" lon="4.73636">
        <ele>146</ele>
        <time>2023-06-03T14:33:06Z</time>
      </trkpt>
      <trkpt lat="45.41399" lon="4.73631">
        <ele>146</ele>
        <time>2023-06-03T14:33:06Z</time>
      </trkpt>
      <trkpt lat="45.41388" lon="4.7353">
        <ele>146</ele>
        <time>2023-06-03T14:33:06Z</time>
      </trkpt>
      <trkpt lat="45.41386" lon="4.73447">
        <ele>146</ele>
      </trkpt>
      <trkpt lat="45.41384" lon="4.73363">
        <ele>147</ele>
        <time>2023-06-03T14:33:06Z</time>
      </trkpt>
      <trkpt lat="45.41391" lon="4.73338">
        <ele>148</ele>
        <time>2023-06-03T14:33:06Z</time>
      </trkpt>
      <trkpt lat="45.41473" lon="4.73281">
        <ele>151</ele>
        <time>2023-06-03T14:33:06Z</time>
      </trkpt>
      <trkpt lat="45.41451" lon="4.73211">
        <ele>153</ele>
      </trkpt>
      <trkpt lat="45.41428" lon="4.73141">
        <ele>155</ele>
        <time>2023-06-03T14:33:06Z</time>
      </trkpt>
      <trkpt lat="45.41428" lon="4.73141">
        <ele>159</ele>
        <time>2023-06-03T14:33:06Z</time>
      </trkpt>
      <trkpt lat="45.4141" lon="4.73089">
        <ele>159</ele>
        <time>2023-06-03T14:33:06Z</time>
      </trkpt>
      <trkpt lat="45.41348" lon="4.73122">
        <ele>158</ele>
        <time>2023-06-03T14:33:06Z</time>
      </trkpt>
      <trkpt lat="45.4125" lon="4.73159">
        <ele>159</ele>
        <time>2023-06-03T14:33:06Z</time>
      </trkpt>
      <trkpt lat="45.41232" lon="4.73136">
        <ele>160</ele>
        <time>2023-06-03T14:33:06Z</time>
      </trkpt>
      <trkpt lat="45.4123" lon="4.73122">
        <ele>161</ele>
        <time>2023-06-03T14:33:06Z</time>
      </trkpt>
      <trkpt lat="45.4123" lon="4.73122">
        <ele>165</ele>
        <time>2023-06-03T14:33:06Z</time>
      </trkpt>
      <trkpt lat="45.4122" lon="4.73051">
        <ele>166</ele>
        <time>2023-06-03T14:33:06Z</time>
      </trkpt>
      <trkpt lat="45.41213" lon="4.73034">
        <ele>167</ele>
        <time>2023-06-03T14:33:06Z</time>
      </trkpt>
      <trkpt lat="45.41116" lon="4.72965">
        <ele>173</ele>
        <time>2023-06-03T14:33:06Z</time>
      </trkpt>
      <trkpt lat="45.41101" lon="4.72962">
        <ele>177</ele>
        <time>2023-06-03T14:33:06Z</time>
      </trkpt>
      <trkpt lat="45.41088" lon="4.72973">
        <ele>181</ele>
        <time>2023-06-03T14:33:06Z</time>
      </trkpt>
      <trkpt lat="45.41093" lon="4.72935">
        <ele>184</ele>
        <time>2023-06-03T14:33:06Z</time>
      </trkpt>
      <trkpt lat="45.41093" lon="4.72935">
        <ele>195</ele>
        <time>2023-06-03T14:33:06Z</time>
      </trkpt>
      <trkpt lat="45.41093" lon="4.72935">
        <ele>195</ele>
        <time>2023-06-03T14:33:06Z</time>
      </trkpt>
      <trkpt lat="45.41104" lon="4.72883">
        <ele>196</ele>
        <time>2023-06-03T14:33:06Z</time>
      </trkpt>
      <trkpt lat="45.41113" lon="4.7286">
        <ele>197</ele>
        <time>2023-06-03T14:33:06Z</time>
      </trkpt>
      <trkpt lat="45.41106" lon="4.72864">
        <ele>197</ele>
        <time>2023-06-03T14:33:06Z</time>
      </trkpt>
      <trkpt lat="45.41093" lon="4.72888">
        <ele>198</ele>
        <time>2023-06-03T14:33:06Z</time>
      </trkpt>
      <trkpt lat="45.41085" lon="4.72871">
        <ele>200</ele>
        <time>2023-06-03T14:33:06Z</time>
      </trkpt>
      <trkpt lat="45.41085" lon="4.72871">
        <ele>206</ele>
        <time>2023-06-03T14:33:06Z</time>
      </trkpt>
      <trkpt lat="45.41079" lon="4.72863">
        <ele>206</ele>
        <time>2023-06-03T14:33:06Z</time>
      </trkpt>
      <trkpt lat="45.41004" lon="4.72803">
        <ele>212</ele>
        <time>2023-06-03T14:33:06Z</time>
      </trkpt>
      <trkpt lat="45.40976" lon="4.72797">
        <ele>218</ele>
        <time>2023-06-03T14:33:06Z</time>
      </trkpt>
      <trkpt lat="45.40963" lon="4.72785">
        <ele>223</ele>
        <time>2023-06-03T14:33:06Z</time>
      </trkpt>
      <trkpt lat="45.40963" lon="4.72785">
        <ele>241</ele>
        <time>2023-06-03T14:33:06Z</time>
      </trkpt>
      <trkpt lat="45.40968" lon="4.72763">
        <ele>241</ele>
        <time>2023-06-03T14:33:06Z</time>
      </trkpt>
      <trkpt lat="45.40974" lon="4.72752">
        <ele>241</ele>
        <time>2023-06-03T14:33:06Z</time>
      </trkpt>
      <trkpt lat="45.40981" lon="4.7275">
        <ele>241</ele>
        <time>2023-06-03T14:33:06Z</time>
      </trkpt>
      <trkpt lat="45.41061" lon="4.72781">
        <ele>241</ele>
        <time>2023-06-03T14:33:06Z</time>
      </trkpt>
      <trkpt lat="45.41084" lon="4.72777">
        <ele>240</ele>
        <time>2023-06-03T14:33:06Z</time>
      </trkpt>
      <trkpt lat="45.41091" lon="4.72765">
        <ele>240</ele>
        <time>2023-06-03T14:33:06Z</time>
      </trkpt>
      <trkpt lat="45.41115" lon="4.72701">
        <ele>240</ele>
        <time>2023-06-03T14:33:06Z</time>
      </trkpt>
      <trkpt lat="45.41152" lon="4.72696">
        <ele>240</ele>
        <time>2023-06-03T14:33:06Z</time>
      </trkpt>
      <trkpt lat="45.41163" lon="4.72688">
        <ele>240</ele>
        <time>2023-06-03T14:33:06Z</time>
      </trkpt>
      <trkpt lat="45.41176" lon="4.72669">
        <ele>240</ele>
        <time>2023-06-03T14:33:06Z</time>
      </trkpt>
      <trkpt lat="45.41184" lon="4.72644">
        <ele>240</ele>
        <time>2023-06-03T14:33:06Z</time>
      </trkpt>
      <trkpt lat="45.41184" lon="4.72633">
        <ele>240</ele>
        <time>2023-06-03T14:33:06Z</time>
      </trkpt>
      <trkpt lat="45.41184" lon="4.72633">
        <ele>243</ele>
        <time>2023-06-03T14:33:06Z</time>
      </trkpt>
      <trkpt lat="45.41182" lon="4.72611">
        <ele>243</ele>
        <time>2023-06-03T14:33:06Z</time>
      </trkpt>
      <trkpt lat="45.41165" lon="4.72551">
        <ele>245</ele>
        <time>2023-06-03T14:33:06Z</time>
      </trkpt>
      <trkpt lat="45.41158" lon="4.72535">
        <ele>246</ele>
        <time>2023-06-03T14:33:06Z</time>
      </trkpt>
      <trkpt lat="45.41149" lon="4.72525">
        <ele>248</ele>
        <time>2023-06-03T14:33:06Z</time>
      </trkpt>
      <trkpt lat="45.41102" lon="4.7249">
        <ele>252</ele>
        <time>2023-06-03T14:33:06Z</time>
      </trkpt>
      <trkpt lat="45.41094" lon="4.72477">
        <ele>255</ele>
        <time>2023-06-03T14:33:06Z</time>
      </trkpt>
      <trkpt lat="45.41037" lon="4.72441">
        <ele>260</ele>
        <time>2023-06-03T14:33:06Z</time>
      </trkpt>
      <trkpt lat="45.41029" lon="4.72429">
        <ele>263</ele>
        <time>2023-06-03T14:33:06Z</time>
      </trkpt>
      <trkpt lat="45.41025" lon="4.72416">
        <ele>266</ele>
        <time>2023-06-03T14:33:06Z</time>
      </trkpt>
      <trkpt lat="45.41025" lon="4.72416">
        <ele>279</ele>
        <time>2023-06-03T14:33:06Z</time>
      </trkpt>
      <trkpt lat="45.41003" lon="4.72329">
        <ele>280</ele>
        <time>2023-06-03T14:33:06Z</time>
      </trkpt>
      <trkpt lat="45.40957" lon="4.72238">
        <ele>292</ele>
        <time>2023-06-03T14:33:06Z</time>
      </trkpt>
      <trkpt lat="45.40946" lon="4.72227">
        <ele>292</ele>
        <time>2023-06-03T14:33:06Z</time>
      </trkpt>
      <trkpt lat="45.4092" lon="4.72225">
        <ele>293</ele>
        <time>2023-06-03T14:33:06Z</time>
      </trkpt>
      <trkpt lat="45.40856" lon="4.72199">
        <ele>297</ele>
        <time>2023-06-03T14:33:06Z</time>
      </trkpt>
      <trkpt lat="45.40856" lon="4.72199">
        <ele>308</ele>
        <time>2023-06-03T14:33:06Z</time>
      </trkpt>
      <trkpt lat="45.40846" lon="4.722">
        <ele>308</ele>
        <time>2023-06-03T14:33:06Z</time>
      </trkpt>
      <trkpt lat="45.40812" lon="4.72169">
        <ele>309</ele>
        <time>2023-06-03T14:33:06Z</time>
      </trkpt>
      <trkpt lat="45.4074" lon="4.72122">
        <ele>310</ele>
        <time>2023-06-03T14:33:06Z</time>
      </trkpt>
      <trkpt lat="45.40738" lon="4.72107">
        <ele>312</ele>
        <time>2023-06-03T14:33:06Z</time>
      </trkpt>
      <trkpt lat="45.4073" lon="4.72088">
        <ele>313</ele>
        <time>2023-06-03T14:33:06Z</time>
      </trkpt>
      <trkpt lat="45.40716" lon="4.72008">
        <ele>313</ele>
        <time>2023-06-03T14:33:06Z</time>
      </trkpt>
      <trkpt lat="45.40716" lon="4.72008">
        <ele>316</ele>
        <time>2023-06-03T14:33:06Z</time>
      </trkpt>
      <trkpt lat="45.40718" lon="4.72021">
        <ele>316</ele>
        <time>2023-06-03T14:33:06Z</time>
      </trkpt>
      <trkpt lat="45.40687" lon="4.71957">
        <ele>315</ele>
        <time>2023-06-03T14:33:06Z</time>
      </trkpt>
      <trkpt lat="45.40678" lon="4.71954">
        <ele>314</ele>
        <time>2023-06-03T14:33:06Z</time>
      </trkpt>
      <trkpt lat="45.4067" lon="4.71972">
        <ele>313</ele>
        <time>2023-06-03T14:33:06Z</time>
      </trkpt>
      <trkpt lat="45.40633" lon="4.71979">
        <ele>312</ele>
        <time>2023-06-03T14:33:06Z</time>
      </trkpt>
      <trkpt lat="45.40621" lon="4.71978">
        <ele>310</ele>
        <time>2023-06-03T14:33:06Z</time>
      </trkpt>
      <trkpt lat="45.40609" lon="4.71963">
        <ele>309</ele>
        <time>2023-06-03T14:33:06Z</time>
      </trkpt>
      <trkpt lat="45.40609" lon="4.71963">
        <ele>304</ele>
        <time>2023-06-03T14:33:06Z</time>
      </trkpt>
      <trkpt lat="45.40552" lon="4.71857">
        <ele>304</ele>
        <time>2023-06-03T14:33:06Z</time>
      </trkpt>
      <trkpt lat="45.40476" lon="4.71787">
        <ele>302</ele>
        <time>2023-06-03T14:33:06Z</time>
      </trkpt>
      <trkpt lat="45.40434" lon="4.71623">
        <ele>292</ele>
        <time>2023-06-03T14:33:06Z</time>
      </trkpt>
      <trkpt lat="45.40432" lon="4.71587">
        <ele>284</ele>
        <time>2023-06-03T14:33:06Z</time>
      </trkpt>
      <trkpt lat="45.40415" lon="4.71577">
        <ele>278</ele>
        <time>2023-06-03T14:33:06Z</time>
      </trkpt>
      <trkpt lat="45.40415" lon="4.71577">
        <ele>262</ele>
        <time>2023-06-03T14:33:06Z</time>
      </trkpt>
      <trkpt lat="45.40387" lon="4.71589">
        <ele>263</ele>
        <time>2023-06-03T14:33:06Z</time>
      </trkpt>
      <trkpt lat="45.40372" lon="4.71634">
        <ele>264</ele>
        <time>2023-06-03T14:33:06Z</time>
      </trkpt>
      <trkpt lat="45.40356" lon="4.71664">
        <ele>266</ele>
        <time>2023-06-03T14:33:06Z</time>
      </trkpt>
      <trkpt lat="45.40313" lon="4.71718">
        <ele>271</ele>
        <time>2023-06-03T14:33:06Z</time>
      </trkpt>
      <trkpt lat="45.40233" lon="4.71761">
        <ele>277</ele>
        <time>2023-06-03T14:33:06Z</time>
      </trkpt>
      <trkpt lat="45.40227" lon="4.71768">
        <ele>281</ele>
        <time>2023-06-03T14:33:06Z</time>
      </trkpt>
      <trkpt lat="45.40211" lon="4.71821">
        <ele>285</ele>
        <time>2023-06-03T14:33:06Z</time>
      </trkpt>
      <trkpt lat="45.40188" lon="4.71859">
        <ele>288</ele>
        <time>2023-06-03T14:33:06Z</time>
      </trkpt>
      <trkpt lat="45.40149" lon="4.71976">
        <ele>291</ele>
        <time>2023-06-03T14:33:06Z</time>
      </trkpt>
      <trkpt lat="45.40098" lon="4.72061">
        <ele>293</ele>
        <time>2023-06-03T14:33:06Z</time>
      </trkpt>
      <trkpt lat="45.40092" lon="4.72047">
        <ele>295</ele>
        <time>2023-06-03T14:33:06Z</time>
      </trkpt>
      <trkpt lat="45.40092" lon="4.72047">
        <ele>300</ele>
        <time>2023-06-03T14:33:06Z</time>
      </trkpt>
      <trkpt lat="45.40098" lon="4.72061">
        <ele>300</ele>
        <time>2023-06-03T14:33:06Z</time>
      </trkpt>
      <trkpt lat="45.40042" lon="4.72157">
        <ele>301</ele>
        <time>2023-06-03T14:33:06Z</time>
      </trkpt>
      <trkpt lat="45.40025" lon="4.72179">
        <ele>301</ele>
        <time>2023-06-03T14:33:06Z</time>
      </trkpt>
      <trkpt lat="45.39967" lon="4.7227">
        <ele>302</ele>
        <time>2023-06-03T14:33:06Z</time>
      </trkpt>
      <trkpt lat="45.39907" lon="4.72338">
        <ele>302</ele>
        <time>2023-06-03T14:33:06Z</time>
      </trkpt>
      <trkpt lat="45.39879" lon="4.7239">
        <ele>302</ele>
        <time>2023-06-03T14:33:06Z</time>
      </trkpt>
      <trkpt lat="45.39789" lon="4.72498">
        <ele>302</ele>
      </trkpt>
      <trkpt lat="45.39699" lon="4.72605">
        <ele>299</ele>
        <time>2023-06-03T14:33:06Z</time>
      </trkpt>
      <trkpt lat="45.39699" lon="4.72605">
        <ele>295</ele>
        <time>2023-06-03T14:33:06Z</time>
      </trkpt>
      <trkpt lat="45.39647" lon="4.72532">
        <ele>296</ele>
      </trkpt>
      <trkpt lat="45.39595" lon="4.72458">
        <ele>298</ele>
      </trkpt>
      <trkpt lat="45.39543" lon="4.72385">
        <ele>301</ele>
      </trkpt>
      <trkpt lat="45.39491" lon="4.72312">
        <ele>304</ele>
      </trkpt>
      <trkpt lat="45.39438" lon="4.72239">
        <ele>308</ele>
      </trkpt>
      <trkpt lat="45.39386" lon="4.72165">
        <ele>311</ele>
      </trkpt>
      <trkpt lat="45.39282" lon="4.72019">
        <ele>319</ele>
        <time>2023-06-03T14:33:06Z</time>
      </trkpt>
      <trkpt lat="45.3926" lon="4.71963">
        <ele>324</ele>
        <time>2023-06-03T14:33:06Z</time>
      </trkpt>
      <trkpt lat="45.39251" lon="4.71934">
        <ele>327</ele>
        <time>2023-06-03T14:33:06Z</time>
      </trkpt>
      <trkpt lat="45.39222" lon="4.71891">
        <ele>330</ele>
        <time>2023-06-03T14:33:06Z</time>
      </trkpt>
      <trkpt lat="45.39217" lon="4.71878">
        <ele>339</ele>
        <time>2023-06-03T14:33:06Z</time>
      </trkpt>
      <trkpt lat="45.39217" lon="4.71878">
        <ele>339</ele>
        <time>2023-06-03T14:33:06Z</time>
      </trkpt>
      <trkpt lat="45.3917" lon="4.7173">
        <ele>340</ele>
        <time>2023-06-03T14:33:06Z</time>
      </trkpt>
      <trkpt lat="45.39152" lon="4.71603">
        <ele>342</ele>
        <time>2023-06-03T14:33:06Z</time>
      </trkpt>
      <trkpt lat="45.39153" lon="4.71472">
        <ele>343</ele>
        <time>2023-06-03T14:33:06Z</time>
      </trkpt>
      <trkpt lat="45.39156" lon="4.71285">
        <ele>344</ele>
        <time>2023-06-03T14:33:06Z</time>
      </trkpt>
      <trkpt lat="45.39148" lon="4.71224">
        <ele>345</ele>
        <time>2023-06-03T14:33:06Z</time>
      </trkpt>
      <trkpt lat="45.39034" lon="4.70794">
        <ele>349</ele>
        <time>2023-06-03T14:33:06Z</time>
      </trkpt>
      <trkpt lat="45.39034" lon="4.70794">
        <ele>353</ele>
        <time>2023-06-03T14:33:06Z</time>
      </trkpt>
      <trkpt lat="45.39026" lon="4.70753">
        <ele>353</ele>
        <time>2023-06-03T14:33:06Z</time>
      </trkpt>
      <trkpt lat="45.38976" lon="4.70597">
        <ele>353</ele>
        <time>2023-06-03T14:33:06Z</time>
      </trkpt>
      <trkpt lat="45.38961" lon="4.70525">
        <ele>352</ele>
        <time>2023-06-03T14:33:06Z</time>
      </trkpt>
      <trkpt lat="45.38958" lon="4.70436">
        <ele>351</ele>
        <time>2023-06-03T14:33:06Z</time>
      </trkpt>
      <trkpt lat="45.38987" lon="4.70321">
        <ele>348</ele>
        <time>2023-06-03T14:33:06Z</time>
      </trkpt>
      <trkpt lat="45.38986" lon="4.70306">
        <ele>347</ele>
        <time>2023-06-03T14:33:06Z</time>
      </trkpt>
      <trkpt lat="45.38961" lon="4.70236">
        <ele>344</ele>
        <time>2023-06-03T14:33:06Z</time>
      </trkpt>
      <trkpt lat="45.38959" lon="4.70218">
        <ele>341</ele>
        <time>2023-06-03T14:33:06Z</time>
      </trkpt>
      <trkpt lat="45.38962" lon="4.702">
        <ele>338</ele>
        <time>2023-06-03T14:33:06Z</time>
      </trkpt>
      <trkpt lat="45.38962" lon="4.70186">
        <ele>336</ele>
        <time>2023-06-03T14:33:06Z</time>
      </trkpt>
      <trkpt lat="45.38953" lon="4.70161">
        <ele>334</ele>
        <time>2023-06-03T14:33:06Z</time>
      </trkpt>
      <trkpt lat="45.38953" lon="4.70161">
        <ele>325</ele>
        <time>2023-06-03T14:33:06Z</time>
      </trkpt>
      <trkpt lat="45.38945" lon="4.7015">
        <ele>325</ele>
        <time>2023-06-03T14:33:06Z</time>
      </trkpt>
      <trkpt lat="45.38938" lon="4.70145">
        <ele>325</ele>
        <time>2023-06-03T14:33:06Z</time>
      </trkpt>
      <trkpt lat="45.38921" lon="4.70145">
        <ele>325</ele>
        <time>2023-06-03T14:33:06Z</time>
      </trkpt>
      <trkpt lat="45.38913" lon="4.70151">
        <ele>325</ele>
        <time>2023-06-03T14:33:06Z</time>
      </trkpt>
      <trkpt lat="45.38901" lon="4.70178">
        <ele>325</ele>
        <time>2023-06-03T14:33:06Z</time>
      </trkpt>
      <trkpt lat="45.38887" lon="4.70229">
        <ele>326</ele>
        <time>2023-06-03T14:33:06Z</time>
      </trkpt>
      <trkpt lat="45.38875" lon="4.70253">
        <ele>327</ele>
        <time>2023-06-03T14:33:06Z</time>
      </trkpt>
      <trkpt lat="45.38861" lon="4.70261">
        <ele>329</ele>
        <time>2023-06-03T14:33:06Z</time>
      </trkpt>
      <trkpt lat="45.38835" lon="4.70266">
        <ele>331</ele>
        <time>2023-06-03T14:33:06Z</time>
      </trkpt>
      <trkpt lat="45.38756" lon="4.70211">
        <ele>336</ele>
        <time>2023-06-03T14:33:06Z</time>
      </trkpt>
      <trkpt lat="45.3873" lon="4.70184">
        <ele>340</ele>
        <time>2023-06-03T14:33:06Z</time>
      </trkpt>
      <trkpt lat="45.38719" lon="4.70179">
        <ele>342</ele>
        <time>2023-06-03T14:33:06Z</time>
      </trkpt>
      <trkpt lat="45.38683" lon="4.70191">
        <ele>345</ele>
        <time>2023-06-03T14:33:06Z</time>
      </trkpt>
      <trkpt lat="45.3867" lon="4.70188">
        <ele>347</ele>
        <time>2023-06-03T14:33:06Z</time>
      </trkpt>
      <trkpt lat="45.38592" lon="4.7014">
        <ele>351</ele>
        <time>2023-06-03T14:33:06Z</time>
      </trkpt>
      <trkpt lat="45.38557" lon="4.70104">
        <ele>354</ele>
        <time>2023-06-03T14:33:06Z</time>
      </trkpt>
      <trkpt lat="45.38546" lon="4.70108">
        <ele>356</ele>
        <time>2023-06-03T14:33:06Z</time>
      </trkpt>
      <trkpt lat="45.38542" lon="4.7012">
        <ele>357</ele>
        <time>2023-06-03T14:33:06Z</time>
      </trkpt>
      <trkpt lat="45.38542" lon="4.7012">
        <ele>363</ele>
        <time>2023-06-03T14:33:06Z</time>
      </trkpt>
      <trkpt lat="45.38546" lon="4.70108">
        <ele>363</ele>
        <time>2023-06-03T14:33:06Z</time>
      </trkpt>
      <trkpt lat="45.38552" lon="4.70102">
        <ele>363</ele>
        <time>2023-06-03T14:33:06Z</time>
      </trkpt>
      <trkpt lat="45.38597" lon="4.69911">
        <ele>364</ele>
        <time>2023-06-03T14:33:06Z</time>
      </trkpt>
      <trkpt lat="45.38616" lon="4.69821">
        <ele>366</ele>
        <time>2023-06-03T14:33:06Z</time>
      </trkpt>
      <trkpt lat="45.38646" lon="4.69725">
        <ele>370</ele>
        <time>2023-06-03T14:33:06Z</time>
      </trkpt>
      <trkpt lat="45.38648" lon="4.69625">
        <ele>374</ele>
        <time>2023-06-03T14:33:06Z</time>
      </trkpt>
      <trkpt lat="45.38653" lon="4.69605">
        <ele>376</ele>
        <time>2023-06-03T14:33:06Z</time>
      </trkpt>
      <trkpt lat="45.38653" lon="4.69605">
        <ele>385</ele>
        <time>2023-06-03T14:33:06Z</time>
      </trkpt>
      <trkpt lat="45.38655" lon="4.69571">
        <ele>385</ele>
        <time>2023-06-03T14:33:06Z</time>
      </trkpt>
      <trkpt lat="45.38647" lon="4.69526">
        <ele>385</ele>
        <time>2023-06-03T14:33:06Z</time>
      </trkpt>
      <trkpt lat="45.38633" lon="4.69525">
        <ele>386</ele>
        <time>2023-06-03T14:33:06Z</time>
      </trkpt>
      <trkpt lat="45.38624" lon="4.6952">
        <ele>386</ele>
        <time>2023-06-03T14:33:06Z</time>
      </trkpt>
      <trkpt lat="45.38631" lon="4.69452">
        <ele>387</ele>
        <time>2023-06-03T14:33:06Z</time>
      </trkpt>
      <trkpt lat="45.38552" lon="4.69346">
        <ele>386</ele>
      </trkpt>
      <trkpt lat="45.38472" lon="4.69241">
        <ele>385</ele>
        <time>2023-06-03T14:33:06Z</time>
      </trkpt>
      <trkpt lat="45.38424" lon="4.69115">
        <ele>384</ele>
        <time>2023-06-03T14:33:06Z</time>
      </trkpt>
      <trkpt lat="45.3841" lon="4.69052">
        <ele>384</ele>
        <time>2023-06-03T14:33:06Z</time>
      </trkpt>
      <trkpt lat="45.38396" lon="4.69018">
        <ele>383</ele>
        <time>2023-06-03T14:33:06Z</time>
      </trkpt>
      <trkpt lat="45.38343" lon="4.68952">
        <ele>384</ele>
      </trkpt>
      <trkpt lat="45.3829" lon="4.68886">
        <ele>384</ele>
        <time>2023-06-03T14:33:06Z</time>
      </trkpt>
      <trkpt lat="45.3829" lon="4.68886">
        <ele>385</ele>
        <time>2023-06-03T14:33:06Z</time>
      </trkpt>
      <trkpt lat="45.38272" lon="4.68866">
        <ele>386</ele>
        <time>2023-06-03T14:33:06Z</time>
      </trkpt>
      <trkpt lat="45.38267" lon="4.68856">
        <ele>386</ele>
        <time>2023-06-03T14:33:06Z</time>
      </trkpt>
      <trkpt lat="45.38258" lon="4.68827">
        <ele>386</ele>
        <time>2023-06-03T14:33:06Z</time>
      </trkpt>
      <trkpt lat="45.38251" lon="4.68816">
        <ele>387</ele>
        <time>2023-06-03T14:33:06Z</time>
      </trkpt>
      <trkpt lat="45.38226" lon="4.68805">
        <ele>387</ele>
        <time>2023-06-03T14:33:06Z</time>
      </trkpt>
      <trkpt lat="45.38169" lon="4.68683">
        <ele>390</ele>
        <time>2023-06-03T14:33:06Z</time>
      </trkpt>
      <trkpt lat="45.38138" lon="4.68665">
        <ele>393</ele>
        <time>2023-06-03T14:33:06Z</time>
      </trkpt>
      <trkpt lat="45.38118" lon="4.68646">
        <ele>395</ele>
        <time>2023-06-03T14:33:06Z</time>
      </trkpt>
      <trkpt lat="45.3803" lon="4.68498">
        <ele>398</ele>
        <time>2023-06-03T14:33:06Z</time>
      </trkpt>
      <trkpt lat="45.37956" lon="4.68427">
        <ele>401</ele>
        <time>2023-06-03T14:33:06Z</time>
      </trkpt>
      <trkpt lat="45.37925" lon="4.68425">
        <ele>402</ele>
        <time>2023-06-03T14:33:06Z</time>
      </trkpt>
      <trkpt lat="45.37901" lon="4.68417">
        <ele>402</ele>
        <time>2023-06-03T14:33:06Z</time>
      </trkpt>
      <trkpt lat="45.37891" lon="4.68416">
        <ele>403</ele>
        <time>2023-06-03T14:33:06Z</time>
      </trkpt>
      <trkpt lat="45.37891" lon="4.68416">
        <ele>404</ele>
        <time>2023-06-03T14:33:06Z</time>
      </trkpt>
      <trkpt lat="45.37877" lon="4.68409">
        <ele>404</ele>
        <time>2023-06-03T14:33:06Z</time>
      </trkpt>
      <trkpt lat="45.37846" lon="4.68449">
        <ele>403</ele>
        <time>2023-06-03T14:33:06Z</time>
      </trkpt>
      <trkpt lat="45.37837" lon="4.68454">
        <ele>403</ele>
        <time>2023-06-03T14:33:06Z</time>
      </trkpt>
      <trkpt lat="45.37776" lon="4.68439">
        <ele>402</ele>
        <time>2023-06-03T14:33:06Z</time>
      </trkpt>
      <trkpt lat="45.37767" lon="4.68442">
        <ele>402</ele>
        <time>2023-06-03T14:33:06Z</time>
      </trkpt>
      <trkpt lat="45.37746" lon="4.68498">
        <ele>402</ele>
        <time>2023-06-03T14:33:06Z</time>
      </trkpt>
      <trkpt lat="45.37738" lon="4.68509">
        <ele>401</ele>
        <time>2023-06-03T14:33:06Z</time>
      </trkpt>
      <trkpt lat="45.37707" lon="4.68513">
        <ele>401</ele>
        <time>2023-06-03T14:33:06Z</time>
      </trkpt>
      <trkpt lat="45.3769" lon="4.68524">
        <ele>400</ele>
        <time>2023-06-03T14:33:06Z</time>
      </trkpt>
      <trkpt lat="45.37598" lon="4.68481">
        <ele>400</ele>
        <time>2023-06-03T14:33:06Z</time>
      </trkpt>
      <trkpt lat="45.37574" lon="4.68434">
        <ele>400</ele>
        <time>2023-06-03T14:33:06Z</time>
      </trkpt>
      <trkpt lat="45.37574" lon="4.68434">
        <ele>402</ele>
        <time>2023-06-03T14:33:06Z</time>
      </trkpt>
      <trkpt lat="45.37547" lon="4.6839">
        <ele>403</ele>
        <time>2023-06-03T14:33:06Z</time>
      </trkpt>
      <trkpt lat="45.37528" lon="4.68337">
        <ele>404</ele>
        <time>2023-06-03T14:33:06Z</time>
      </trkpt>
      <trkpt lat="45.37461" lon="4.68217">
        <ele>407</ele>
        <time>2023-06-03T14:33:06Z</time>
      </trkpt>
      <trkpt lat="45.37413" lon="4.6807">
        <ele>413</ele>
        <time>2023-06-03T14:33:06Z</time>
      </trkpt>
      <trkpt lat="45.37411" lon="4.68053">
        <ele>416</ele>
        <time>2023-06-03T14:33:06Z</time>
      </trkpt>
      <trkpt lat="45.3732" lon="4.67974">
        <ele>421</ele>
        <time>2023-06-03T14:33:06Z</time>
      </trkpt>
      <trkpt lat="45.37248" lon="4.67856">
        <ele>427</ele>
        <time>2023-06-03T14:33:06Z</time>
      </trkpt>
      <trkpt lat="45.37199" lon="4.67816">
        <ele>434</ele>
        <time>2023-06-03T14:33:06Z</time>
      </trkpt>
      <trkpt lat="45.37125" lon="4.67781">
        <ele>442</ele>
        <time>2023-06-03T14:33:06Z</time>
      </trkpt>
      <trkpt lat="45.37125" lon="4.67781">
        <ele>460</ele>
        <time>2023-06-03T14:33:06Z</time>
      </trkpt>
      <trkpt lat="45.37091" lon="4.6777">
        <ele>462</ele>
        <time>2023-06-03T14:33:06Z</time>
      </trkpt>
      <trkpt lat="45.37085" lon="4.67763">
        <ele>463</ele>
        <time>2023-06-03T14:33:06Z</time>
      </trkpt>
      <trkpt lat="45.37057" lon="4.67757">
        <ele>465</ele>
        <time>2023-06-03T14:33:06Z</time>
      </trkpt>
      <trkpt lat="45.36998" lon="4.67732">
        <ele>467</ele>
        <time>2023-06-03T14:33:06Z</time>
      </trkpt>
      <trkpt lat="45.36959" lon="4.6767">
        <ele>469</ele>
        <time>2023-06-03T14:33:06Z</time>
      </trkpt>
      <trkpt lat="45.36937" lon="4.67617">
        <ele>470</ele>
        <time>2023-06-03T14:33:06Z</time>
      </trkpt>
      <trkpt lat="45.36914" lon="4.6758">
        <ele>470</ele>
        <time>2023-06-03T14:33:06Z</time>
      </trkpt>
      <trkpt lat="45.36901" lon="4.67543">
        <ele>469</ele>
        <time>2023-06-03T14:33:06Z</time>
      </trkpt>
      <trkpt lat="45.36897" lon="4.675">
        <ele>469</ele>
        <time>2023-06-03T14:33:06Z</time>
      </trkpt>
      <trkpt lat="45.36879" lon="4.67435">
        <ele>469</ele>
        <time>2023-06-03T14:33:06Z</time>
      </trkpt>
      <trkpt lat="45.36877" lon="4.67406">
        <ele>470</ele>
        <time>2023-06-03T14:33:06Z</time>
      </trkpt>
      <trkpt lat="45.36841" lon="4.67298">
        <ele>471</ele>
        <time>2023-06-03T14:33:06Z</time>
      </trkpt>
      <trkpt lat="45.36788" lon="4.67222">
        <ele>471</ele>
        <time>2023-06-03T14:33:06Z</time>
      </trkpt>
      <trkpt lat="45.36768" lon="4.67209">
        <ele>470</ele>
        <time>2023-06-03T14:33:06Z</time>
      </trkpt>
      <trkpt lat="45.36707" lon="4.67187">
        <ele>470</ele>
        <time>2023-06-03T14:33:06Z</time>
      </trkpt>
      <trkpt lat="45.36658" lon="4.67132">
        <ele>469</ele>
        <time>2023-06-03T14:33:06Z</time>
      </trkpt>
      <trkpt lat="45.36648" lon="4.67125">
        <ele>469</ele>
        <time>2023-06-03T14:33:06Z</time>
      </trkpt>
      <trkpt lat="45.36618" lon="4.67129">
        <ele>469</ele>
        <time>2023-06-03T14:33:06Z</time>
      </trkpt>
      <trkpt lat="45.36618" lon="4.67129">
        <ele>470</ele>
        <time>2023-06-03T14:33:06Z</time>
      </trkpt>
      <trkpt lat="45.36535" lon="4.67138">
        <ele>470</ele>
        <time>2023-06-03T14:33:06Z</time>
      </trkpt>
      <trkpt lat="45.36525" lon="4.67141">
        <ele>470</ele>
        <time>2023-06-03T14:33:06Z</time>
      </trkpt>
      <trkpt lat="45.36514" lon="4.67141">
        <ele>470</ele>
        <time>2023-06-03T14:33:06Z</time>
      </trkpt>
      <trkpt lat="45.36462" lon="4.67126">
        <ele>470</ele>
        <time>2023-06-03T14:33:06Z</time>
      </trkpt>
      <trkpt lat="45.36437" lon="4.67127">
        <ele>469</ele>
        <time>2023-06-03T14:33:06Z</time>
      </trkpt>
      <trkpt lat="45.36424" lon="4.67124">
        <ele>469</ele>
        <time>2023-06-03T14:33:06Z</time>
      </trkpt>
      <trkpt lat="45.36246" lon="4.66856">
        <ele>473</ele>
        <time>2023-06-03T14:33:06Z</time>
      </trkpt>
      <trkpt lat="45.36239" lon="4.66843">
        <ele>476</ele>
        <time>2023-06-03T14:33:06Z</time>
      </trkpt>
      <trkpt lat="45.36237" lon="4.66842">
        <ele>477</ele>
        <time>2023-06-03T14:33:06Z</time>
      </trkpt>
      <trkpt lat="45.36237" lon="4.66842">
        <ele>481</ele>
        <time>2023-06-03T14:33:06Z</time>
      </trkpt>
      <trkpt lat="45.36236" lon="4.66829">
        <ele>481</ele>
        <time>2023-06-03T14:33:06Z</time>
      </trkpt>
      <trkpt lat="45.36232" lon="4.66821">
        <ele>481</ele>
        <time>2023-06-03T14:33:06Z</time>
      </trkpt>
      <trkpt lat="45.36185" lon="4.66866">
        <ele>481</ele>
        <time>2023-06-03T14:33:06Z</time>
      </trkpt>
      <trkpt lat="45.36172" lon="4.66884">
        <ele>481</ele>
        <time>2023-06-03T14:33:06Z</time>
      </trkpt>
      <trkpt lat="45.36156" lon="4.66896">
        <ele>481</ele>
        <time>2023-06-03T14:33:06Z</time>
      </trkpt>
      <trkpt lat="45.36128" lon="4.6693">
        <ele>479</ele>
        <time>2023-06-03T14:33:06Z</time>
      </trkpt>
      <trkpt lat="45.36132" lon="4.6696">
        <ele>478</ele>
        <time>2023-06-03T14:33:06Z</time>
      </trkpt>
      <trkpt lat="45.36083" lon="4.67061">
        <ele>474</ele>
        <time>2023-06-03T14:33:06Z</time>
      </trkpt>
      <trkpt lat="45.36065" lon="4.67087">
        <ele>471</ele>
        <time>2023-06-03T14:33:06Z</time>
      </trkpt>
      <trkpt lat="45.36044" lon="4.67138">
        <ele>469</ele>
        <time>2023-06-03T14:33:06Z</time>
      </trkpt>
      <trkpt lat="45.36037" lon="4.6715">
        <ele>467</ele>
        <time>2023-06-03T14:33:06Z</time>
      </trkpt>
      <trkpt lat="45.36029" lon="4.67147">
        <ele>466</ele>
        <time>2023-06-03T14:33:06Z</time>
      </trkpt>
      <trkpt lat="45.36029" lon="4.67147">
        <ele>460</ele>
        <time>2023-06-03T14:33:06Z</time>
      </trkpt>
      <trkpt lat="45.36035" lon="4.67154">
        <ele>460</ele>
        <time>2023-06-03T14:33:06Z</time>
      </trkpt>
      <trkpt lat="45.36036" lon="4.67143">
        <ele>460</ele>
        <time>2023-06-03T14:33:06Z</time>
      </trkpt>
      <trkpt lat="45.36023" lon="4.67067">
        <ele>460</ele>
        <time>2023-06-03T14:33:06Z</time>
      </trkpt>
      <trkpt lat="45.36025" lon="4.66951">
        <ele>460</ele>
        <time>2023-06-03T14:33:06Z</time>
      </trkpt>
      <trkpt lat="45.36021" lon="4.66942">
        <ele>460</ele>
        <time>2023-06-03T14:33:06Z</time>
      </trkpt>
      <trkpt lat="45.36003" lon="4.66934">
        <ele>459</ele>
        <time>2023-06-03T14:33:06Z</time>
      </trkpt>
      <trkpt lat="45.35961" lon="4.66938">
        <ele>460</ele>
        <time>2023-06-03T14:33:06Z</time>
      </trkpt>
      <trkpt lat="45.35953" lon="4.66929">
        <ele>461</ele>
        <time>2023-06-03T14:33:06Z</time>
      </trkpt>
      <trkpt lat="45.3595" lon="4.66916">
        <ele>462</ele>
        <time>2023-06-03T14:33:06Z</time>
      </trkpt>
      <trkpt lat="45.35936" lon="4.66931">
        <ele>462</ele>
        <time>2023-06-03T14:33:06Z</time>
      </trkpt>
      <trkpt lat="45.35724" lon="4.6691">
        <ele>460</ele>
        <time>2023-06-03T14:33:06Z</time>
      </trkpt>
      <trkpt lat="45.35724" lon="4.6691">
        <ele>457</ele>
        <time>2023-06-03T14:33:06Z</time>
      </trkpt>
      <trkpt lat="45.35715" lon="4.6691">
        <ele>457</ele>
        <time>2023-06-03T14:33:06Z</time>
      </trkpt>
      <trkpt lat="45.35708" lon="4.66908">
        <ele>457</ele>
        <time>2023-06-03T14:33:06Z</time>
      </trkpt>
      <trkpt lat="45.35662" lon="4.66864">
        <ele>457</ele>
        <time>2023-06-03T14:33:06Z</time>
      </trkpt>
      <trkpt lat="45.3558" lon="4.66799">
        <ele>456</ele>
        <time>2023-06-03T14:33:06Z</time>
      </trkpt>
      <trkpt lat="45.35496" lon="4.66721">
        <ele>455</ele>
        <time>2023-06-03T14:33:06Z</time>
      </trkpt>
      <trkpt lat="45.35441" lon="4.66689">
        <ele>454</ele>
        <time>2023-06-03T14:33:06Z</time>
      </trkpt>
      <trkpt lat="45.35257" lon="4.66473">
        <ele>450</ele>
        <time>2023-06-03T14:33:06Z</time>
      </trkpt>
      <trkpt lat="45.35257" lon="4.66473">
        <ele>444</ele>
        <time>2023-06-03T14:33:06Z</time>
      </trkpt>
      <trkpt lat="45.35242" lon="4.66453">
        <ele>444</ele>
        <time>2023-06-03T14:33:06Z</time>
      </trkpt>
      <trkpt lat="45.35265" lon="4.66405">
        <ele>446</ele>
        <time>2023-06-03T14:33:06Z</time>
      </trkpt>
      <trkpt lat="45.35262" lon="4.66331">
        <ele>447</ele>
        <time>2023-06-03T14:33:06Z</time>
      </trkpt>
      <trkpt lat="45.35254" lon="4.66313">
        <ele>448</ele>
        <time>2023-06-03T14:33:06Z</time>
      </trkpt>
      <trkpt lat="45.35233" lon="4.66234">
        <ele>450</ele>
        <time>2023-06-03T14:33:06Z</time>
      </trkpt>
      <trkpt lat="45.35201" lon="4.66173">
        <ele>452</ele>
        <time>2023-06-03T14:33:06Z</time>
      </trkpt>
      <trkpt lat="45.35197" lon="4.66161">
        <ele>454</ele>
        <time>2023-06-03T14:33:06Z</time>
      </trkpt>
      <trkpt lat="45.35194" lon="4.66139">
        <ele>455</ele>
        <time>2023-06-03T14:33:06Z</time>
      </trkpt>
      <trkpt lat="45.35181" lon="4.66116">
        <ele>457</ele>
        <time>2023-06-03T14:33:06Z</time>
      </trkpt>
      <trkpt lat="45.35168" lon="4.66039">
        <ele>460</ele>
        <time>2023-06-03T14:33:06Z</time>
      </trkpt>
      <trkpt lat="45.35151" lon="4.65999">
        <ele>462</ele>
        <time>2023-06-03T14:33:06Z</time>
      </trkpt>
      <trkpt lat="45.35082" lon="4.65725">
        <ele>463</ele>
        <time>2023-06-03T14:33:06Z</time>
      </trkpt>
      <trkpt lat="45.35073" lon="4.65713">
        <ele>464</ele>
        <time>2023-06-03T14:33:06Z</time>
      </trkpt>
      <trkpt lat="45.35073" lon="4.65713">
        <ele>466</ele>
        <time>2023-06-03T14:33:06Z</time>
      </trkpt>
      <trkpt lat="45.35039" lon="4.65715">
        <ele>466</ele>
        <time>2023-06-03T14:33:06Z</time>
      </trkpt>
      <trkpt lat="45.35004" lon="4.65684">
        <ele>467</ele>
        <time>2023-06-03T14:33:06Z</time>
      </trkpt>
      <trkpt lat="45.34997" lon="4.65673">
        <ele>468</ele>
        <time>2023-06-03T14:33:06Z</time>
      </trkpt>
      <trkpt lat="45.3499" lon="4.65639">
        <ele>469</ele>
        <time>2023-06-03T14:33:06Z</time>
      </trkpt>
      <trkpt lat="45.34972" lon="4.65622">
        <ele>469</ele>
        <time>2023-06-03T14:33:06Z</time>
      </trkpt>
      <trkpt lat="45.3494" lon="4.65562">
        <ele>470</ele>
        <time>2023-06-03T14:33:06Z</time>
      </trkpt>
      <trkpt lat="45.34938" lon="4.65541">
        <ele>471</ele>
        <time>2023-06-03T14:33:06Z</time>
      </trkpt>
      <trkpt lat="45.3494" lon="4.65523">
        <ele>472</ele>
        <time>2023-06-03T14:33:06Z</time>
      </trkpt>
      <trkpt lat="45.34953" lon="4.65503">
        <ele>473</ele>
        <time>2023-06-03T14:33:06Z</time>
      </trkpt>
      <trkpt lat="45.34941" lon="4.65489">
        <ele>473</ele>
        <time>2023-06-03T14:33:06Z</time>
      </trkpt>
      <trkpt lat="45.34893" lon="4.65475">
        <ele>474</ele>
        <time>2023-06-03T14:33:06Z</time>
      </trkpt>
      <trkpt lat="45.34846" lon="4.65394">
        <ele>474</ele>
        <time>2023-06-03T14:33:06Z</time>
      </trkpt>
      <trkpt lat="45.34835" lon="4.65362">
        <ele>474</ele>
        <time>2023-06-03T14:33:06Z</time>
      </trkpt>
      <trkpt lat="45.34804" lon="4.65311">
        <ele>475</ele>
        <time>2023-06-03T14:33:06Z</time>
      </trkpt>
      <trkpt lat="45.34756" lon="4.65267">
        <ele>474</ele>
        <time>2023-06-03T14:33:06Z</time>
      </trkpt>
      <trkpt lat="45.34717" lon="4.65169">
        <ele>474</ele>
        <time>2023-06-03T14:33:06Z</time>
      </trkpt>
      <trkpt lat="45.34688" lon="4.65135">
        <ele>475</ele>
        <time>2023-06-03T14:33:06Z</time>
      </trkpt>
      <trkpt lat="45.34675" lon="4.65112">
        <ele>475</ele>
        <time>2023-06-03T14:33:06Z</time>
      </trkpt>
      <trkpt lat="45.34675" lon="4.65112">
        <ele>475</ele>
        <time>2023-06-03T14:33:06Z</time>
      </trkpt>
      <trkpt lat="45.3465" lon="4.6507">
        <ele>475</ele>
        <time>2023-06-03T14:33:06Z</time>
      </trkpt>
      <trkpt lat="45.34641" lon="4.65042">
        <ele>475</ele>
        <time>2023-06-03T14:33:06Z</time>
      </trkpt>
      <trkpt lat="45.34644" lon="4.64967">
        <ele>476</ele>
        <time>2023-06-03T14:33:06Z</time>
      </trkpt>
      <trkpt lat="45.34649" lon="4.64952">
        <ele>476</ele>
        <time>2023-06-03T14:33:06Z</time>
      </trkpt>
      <trkpt lat="45.3466" lon="4.64804">
        <ele>477</ele>
        <time>2023-06-03T14:33:06Z</time>
      </trkpt>
      <trkpt lat="45.34657" lon="4.6479">
        <ele>479</ele>
        <time>2023-06-03T14:33:06Z</time>
      </trkpt>
      <trkpt lat="45.34638" lon="4.6476">
        <ele>481</ele>
        <time>2023-06-03T14:33:06Z</time>
      </trkpt>
      <trkpt lat="45.34625" lon="4.64748">
        <ele>482</ele>
        <time>2023-06-03T14:33:06Z</time>
      </trkpt>
      <trkpt lat="45.34602" lon="4.64739">
        <ele>483</ele>
        <time>2023-06-03T14:33:06Z</time>
      </trkpt>
      <trkpt lat="45.34553" lon="4.64731">
        <ele>485</ele>
        <time>2023-06-03T14:33:06Z</time>
      </trkpt>
      <trkpt lat="45.34529" lon="4.64719">
        <ele>491</ele>
        <time>2023-06-03T14:33:06Z</time>
      </trkpt>
      <trkpt lat="45.34526" lon="4.64705">
        <ele>491</ele>
        <time>2023-06-03T14:33:06Z</time>
      </trkpt>
      <trkpt lat="45.34515" lon="4.64677">
        <ele>492</ele>
        <time>2023-06-03T14:33:06Z</time>
      </trkpt>
      <trkpt lat="45.34501" lon="4.64628">
        <ele>493</ele>
        <time>2023-06-03T14:33:06Z</time>
      </trkpt>
      <trkpt lat="45.34488" lon="4.64595">
        <ele>495</ele>
        <time>2023-06-03T14:33:06Z</time>
      </trkpt>
      <trkpt lat="45.34457" lon="4.64455">
        <ele>498</ele>
        <time>2023-06-03T14:33:06Z</time>
      </trkpt>
      <trkpt lat="45.34457" lon="4.64442">
        <ele>500</ele>
        <time>2023-06-03T14:33:06Z</time>
      </trkpt>
      <trkpt lat="45.34476" lon="4.64367">
        <ele>503</ele>
        <time>2023-06-03T14:33:06Z</time>
      </trkpt>
      <trkpt lat="45.34498" lon="4.6433">
        <ele>506</ele>
        <time>2023-06-03T14:33:06Z</time>
      </trkpt>
      <trkpt lat="45.34501" lon="4.64308">
        <ele>509</ele>
        <time>2023-06-03T14:33:06Z</time>
      </trkpt>
      <trkpt lat="45.34495" lon="4.64278">
        <ele>511</ele>
        <time>2023-06-03T14:33:06Z</time>
      </trkpt>
      <trkpt lat="45.3445" lon="4.64151">
        <ele>516</ele>
        <time>2023-06-03T14:33:06Z</time>
      </trkpt>
      <trkpt lat="45.34423" lon="4.63962">
        <ele>525</ele>
        <time>2023-06-03T14:33:06Z</time>
      </trkpt>
      <trkpt lat="45.34405" lon="4.63916">
        <ele>531</ele>
        <time>2023-06-03T14:33:06Z</time>
      </trkpt>
      <trkpt lat="45.34403" lon="4.63884">
        <ele>535</ele>
        <time>2023-06-03T14:33:06Z</time>
      </trkpt>
      <trkpt lat="45.34416" lon="4.63856">
        <ele>539</ele>
        <time>2023-06-03T14:33:06Z</time>
      </trkpt>
      <trkpt lat="45.34415" lon="4.63841">
        <ele>542</ele>
        <time>2023-06-03T14:33:06Z</time>
      </trkpt>
      <trkpt lat="45.34391" lon="4.63803">
        <ele>546</ele>
        <time>2023-06-03T14:33:06Z</time>
      </trkpt>
      <trkpt lat="45.34391" lon="4.63803">
        <ele>560</ele>
        <time>2023-06-03T14:33:06Z</time>
      </trkpt>
      <trkpt lat="45.34374" lon="4.63778">
        <ele>561</ele>
        <time>2023-06-03T14:33:06Z</time>
      </trkpt>
      <trkpt lat="45.34366" lon="4.63758">
        <ele>562</ele>
        <time>2023-06-03T14:33:06Z</time>
      </trkpt>
      <trkpt lat="45.34366" lon="4.63747">
        <ele>564</ele>
        <time>2023-06-03T14:33:06Z</time>
      </trkpt>
      <trkpt lat="45.34357" lon="4.63741">
        <ele>565</ele>
        <time>2023-06-03T14:33:06Z</time>
      </trkpt>
      <trkpt lat="45.34347" lon="4.63739">
        <ele>567</ele>
        <time>2023-06-03T14:33:06Z</time>
      </trkpt>
      <trkpt lat="45.3434" lon="4.63732">
        <ele>568</ele>
        <time>2023-06-03T14:33:06Z</time>
      </trkpt>
      <trkpt lat="45.34338" lon="4.63718">
        <ele>570</ele>
        <time>2023-06-03T14:33:06Z</time>
      </trkpt>
      <trkpt lat="45.34341" lon="4.63595">
        <ele>575</ele>
        <time>2023-06-03T14:33:06Z</time>
      </trkpt>
      <trkpt lat="45.34331" lon="4.63536">
        <ele>581</ele>
        <time>2023-06-03T14:33:06Z</time>
      </trkpt>
      <trkpt lat="45.34302" lon="4.63551">
        <ele>586</ele>
        <time>2023-06-03T14:33:06Z</time>
      </trkpt>
      <trkpt lat="45.34281" lon="4.63537">
        <ele>591</ele>
        <time>2023-06-03T14:33:06Z</time>
      </trkpt>
      <trkpt lat="45.34209" lon="4.63465">
        <ele>600</ele>
        <time>2023-06-03T14:33:06Z</time>
      </trkpt>
      <trkpt lat="45.34196" lon="4.63436">
        <ele>607</ele>
        <time>2023-06-03T14:33:06Z</time>
      </trkpt>
      <trkpt lat="45.34186" lon="4.63425">
        <ele>613</ele>
        <time>2023-06-03T14:33:06Z</time>
      </trkpt>
      <trkpt lat="45.3413" lon="4.63396">
        <ele>620</ele>
        <time>2023-06-03T14:33:06Z</time>
      </trkpt>
      <trkpt lat="45.34092" lon="4.63339">
        <ele>629</ele>
        <time>2023-06-03T14:33:06Z</time>
      </trkpt>
      <trkpt lat="45.3408" lon="4.63277">
        <ele>638</ele>
        <time>2023-06-03T14:33:06Z</time>
      </trkpt>
      <trkpt lat="45.34075" lon="4.63264">
        <ele>645</ele>
        <time>2023-06-03T14:33:06Z</time>
      </trkpt>
      <trkpt lat="45.34073" lon="4.63244">
        <ele>650</ele>
        <time>2023-06-03T14:33:06Z</time>
      </trkpt>
      <trkpt lat="45.34049" lon="4.63201">
        <ele>656</ele>
        <time>2023-06-03T14:33:06Z</time>
      </trkpt>
      <trkpt lat="45.34014" lon="4.63078">
        <ele>666</ele>
        <time>2023-06-03T14:33:06Z</time>
      </trkpt>
      <trkpt lat="45.34014" lon="4.63078">
        <ele>692</ele>
        <time>2023-06-03T14:33:06Z</time>
      </trkpt>
      <trkpt lat="45.34007" lon="4.63058">
        <ele>693</ele>
        <time>2023-06-03T14:33:06Z</time>
      </trkpt>
      <trkpt lat="45.33996" lon="4.63062">
        <ele>693</ele>
        <time>2023-06-03T14:33:06Z</time>
      </trkpt>
      <trkpt lat="45.33944" lon="4.63071">
        <ele>693</ele>
        <time>2023-06-03T14:33:06Z</time>
      </trkpt>
      <trkpt lat="45.33921" lon="4.63081">
        <ele>691</ele>
        <time>2023-06-03T14:33:06Z</time>
      </trkpt>
      <trkpt lat="45.33915" lon="4.63088">
        <ele>690</ele>
        <time>2023-06-03T14:33:06Z</time>
      </trkpt>
      <trkpt lat="45.33856" lon="4.63065">
        <ele>690</ele>
        <time>2023-06-03T14:33:06Z</time>
      </trkpt>
      <trkpt lat="45.33824" lon="4.6306">
        <ele>689</ele>
        <time>2023-06-03T14:33:06Z</time>
      </trkpt>
      <trkpt lat="45.33815" lon="4.63063">
        <ele>689</ele>
        <time>2023-06-03T14:33:06Z</time>
      </trkpt>
      <trkpt lat="45.33792" lon="4.63085">
        <ele>688</ele>
        <time>2023-06-03T14:33:06Z</time>
      </trkpt>
      <trkpt lat="45.33785" lon="4.63097">
        <ele>687</ele>
        <time>2023-06-03T14:33:06Z</time>
      </trkpt>
      <trkpt lat="45.3376" lon="4.63241">
        <ele>688</ele>
        <time>2023-06-03T14:33:06Z</time>
      </trkpt>
      <trkpt lat="45.33754" lon="4.63253">
        <ele>688</ele>
        <time>2023-06-03T14:33:06Z</time>
      </trkpt>
      <trkpt lat="45.33743" lon="4.63258">
        <ele>688</ele>
        <time>2023-06-03T14:33:06Z</time>
      </trkpt>
      <trkpt lat="45.33678" lon="4.6325">
        <ele>687</ele>
        <time>2023-06-03T14:33:06Z</time>
      </trkpt>
      <trkpt lat="45.33668" lon="4.63254">
        <ele>685</ele>
        <time>2023-06-03T14:33:06Z</time>
      </trkpt>
      <trkpt lat="45.33656" lon="4.63267">
        <ele>684</ele>
        <time>2023-06-03T14:33:06Z</time>
      </trkpt>
      <trkpt lat="45.33617" lon="4.63291">
        <ele>683</ele>
        <time>2023-06-03T14:33:06Z</time>
      </trkpt>
      <trkpt lat="45.3361" lon="4.63289">
        <ele>681</ele>
        <time>2023-06-03T14:33:06Z</time>
      </trkpt>
      <trkpt lat="45.33604" lon="4.63203">
        <ele>680</ele>
        <time>2023-06-03T14:33:06Z</time>
      </trkpt>
      <trkpt lat="45.33604" lon="4.63203">
        <ele>676</ele>
        <time>2023-06-03T14:33:06Z</time>
      </trkpt>
      <trkpt lat="45.33605" lon="4.63082">
        <ele>675</ele>
        <time>2023-06-03T14:33:06Z</time>
      </trkpt>
      <trkpt lat="45.33625" lon="4.63094">
        <ele>673</ele>
        <time>2023-06-03T14:33:06Z</time>
      </trkpt>
      <trkpt lat="45.33637" lon="4.63096">
        <ele>672</ele>
        <time>2023-06-03T14:33:06Z</time>
      </trkpt>
      <trkpt lat="45.33732" lon="4.63005">
        <ele>668</ele>
        <time>2023-06-03T14:33:06Z</time>
      </trkpt>
      <trkpt lat="45.33876" lon="4.62904">
        <ele>664</ele>
        <time>2023-06-03T14:33:06Z</time>
      </trkpt>
      <trkpt lat="45.33884" lon="4.62896">
        <ele>662</ele>
        <time>2023-06-03T14:33:06Z</time>
      </trkpt>
      <trkpt lat="45.33873" lon="4.62877">
        <ele>661</ele>
        <time>2023-06-03T14:33:06Z</time>
      </trkpt>
      <trkpt lat="45.33857" lon="4.62868">
        <ele>661</ele>
        <time>2023-06-03T14:33:06Z</time>
      </trkpt>
      <trkpt lat="45.33811" lon="4.62858">
        <ele>661</ele>
        <time>2023-06-03T14:33:06Z</time>
      </trkpt>
      <trkpt lat="45.3378" lon="4.62842">
        <ele>661</ele>
        <time>2023-06-03T14:33:06Z</time>
      </trkpt>
      <trkpt lat="45.3377" lon="4.62842">
        <ele>660</ele>
        <time>2023-06-03T14:33:06Z</time>
      </trkpt>
      <trkpt lat="45.33762" lon="4.62845">
        <ele>660</ele>
        <time>2023-06-03T14:33:06Z</time>
      </trkpt>
      <trkpt lat="45.33751" lon="4.62854">
        <ele>659</ele>
        <time>2023-06-03T14:33:06Z</time>
      </trkpt>
      <trkpt lat="45.33743" lon="4.62847">
        <ele>658</ele>
        <time>2023-06-03T14:33:06Z</time>
      </trkpt>
      <trkpt lat="45.3373" lon="4.62851">
        <ele>658</ele>
        <time>2023-06-03T14:33:06Z</time>
      </trkpt>
      <trkpt lat="45.33718" lon="4.62846">
        <ele>657</ele>
        <time>2023-06-03T14:33:06Z</time>
      </trkpt>
      <trkpt lat="45.33718" lon="4.62846">
        <ele>653</ele>
        <time>2023-06-03T14:33:06Z</time>
      </trkpt>
      <trkpt lat="45.33707" lon="4.62847">
        <ele>653</ele>
        <time>2023-06-03T14:33:06Z</time>
      </trkpt>
      <trkpt lat="45.33694" lon="4.62868">
        <ele>653</ele>
        <time>2023-06-03T14:33:06Z</time>
      </trkpt>
      <trkpt lat="45.33686" lon="4.62876">
        <ele>651</ele>
        <time>2023-06-03T14:33:06Z</time>
      </trkpt>
      <trkpt lat="45.33679" lon="4.62862">
        <ele>650</ele>
        <time>2023-06-03T14:33:06Z</time>
      </trkpt>
      <trkpt lat="45.33659" lon="4.62803">
        <ele>646</ele>
        <time>2023-06-03T14:33:06Z</time>
      </trkpt>
      <trkpt lat="45.33681" lon="4.62742">
        <ele>642</ele>
        <time>2023-06-03T14:33:06Z</time>
      </trkpt>
      <trkpt lat="45.33682" lon="4.62725">
        <ele>639</ele>
        <time>2023-06-03T14:33:06Z</time>
      </trkpt>
      <trkpt lat="45.33676" lon="4.62713">
        <ele>636</ele>
        <time>2023-06-03T14:33:06Z</time>
      </trkpt>
      <trkpt lat="45.3366" lon="4.62704">
        <ele>634</ele>
        <time>2023-06-03T14:33:06Z</time>
      </trkpt>
      <trkpt lat="45.3364" lon="4.62705">
        <ele>632</ele>
        <time>2023-06-03T14:33:06Z</time>
      </trkpt>
      <trkpt lat="45.33633" lon="4.62697">
        <ele>631</ele>
        <time>2023-06-03T14:33:06Z</time>
      </trkpt>
      <trkpt lat="45.3362" lon="4.62696">
        <ele>629</ele>
        <time>2023-06-03T14:33:06Z</time>
      </trkpt>
      <trkpt lat="45.33613" lon="4.62699">
        <ele>627</ele>
        <time>2023-06-03T14:33:06Z</time>
      </trkpt>
      <trkpt lat="45.33565" lon="4.62682">
        <ele>625</ele>
        <time>2023-06-03T14:33:06Z</time>
      </trkpt>
      <trkpt lat="45.33543" lon="4.6268">
        <ele>622</ele>
        <time>2023-06-03T14:33:06Z</time>
      </trkpt>
      <trkpt lat="45.33435" lon="4.62715">
        <ele>616</ele>
        <time>2023-06-03T14:33:06Z</time>
      </trkpt>
      <trkpt lat="45.3339" lon="4.62736">
        <ele>611</ele>
        <time>2023-06-03T14:33:06Z</time>
      </trkpt>
      <trkpt lat="45.33376" lon="4.62737">
        <ele>607</ele>
        <time>2023-06-03T14:33:06Z</time>
      </trkpt>
      <trkpt lat="45.33352" lon="4.62717">
        <ele>605</ele>
        <time>2023-06-03T14:33:06Z</time>
      </trkpt>
      <trkpt lat="45.33338" lon="4.62692">
        <ele>604</ele>
        <time>2023-06-03T14:33:06Z</time>
      </trkpt>
      <trkpt lat="45.33338" lon="4.62692">
        <ele>597</ele>
        <time>2023-06-03T14:33:06Z</time>
      </trkpt>
      <trkpt lat="45.33331" lon="4.62681">
        <ele>597</ele>
        <time>2023-06-03T14:33:06Z</time>
      </trkpt>
      <trkpt lat="45.33154" lon="4.62636">
        <ele>592</ele>
        <time>2023-06-03T14:33:06Z</time>
      </trkpt>
      <trkpt lat="45.33139" lon="4.62625">
        <ele>591</ele>
        <time>2023-06-03T14:33:06Z</time>
      </trkpt>
      <trkpt lat="45.33133" lon="4.62616">
        <ele>591</ele>
        <time>2023-06-03T14:33:06Z</time>
      </trkpt>
      <trkpt lat="45.33115" lon="4.6257">
        <ele>589</ele>
        <time>2023-06-03T14:33:06Z</time>
      </trkpt>
      <trkpt lat="45.33108" lon="4.62567">
        <ele>588</ele>
        <time>2023-06-03T14:33:06Z</time>
      </trkpt>
      <trkpt lat="45.33071" lon="4.62577">
        <ele>588</ele>
        <time>2023-06-03T14:33:06Z</time>
      </trkpt>
      <trkpt lat="45.33062" lon="4.62572">
        <ele>587</ele>
        <time>2023-06-03T14:33:06Z</time>
      </trkpt>
      <trkpt lat="45.33019" lon="4.62493">
        <ele>587</ele>
        <time>2023-06-03T14:33:06Z</time>
      </trkpt>
      <trkpt lat="45.33009" lon="4.62469">
        <ele>587</ele>
        <time>2023-06-03T14:33:06Z</time>
      </trkpt>
      <trkpt lat="45.33002" lon="4.6246">
        <ele>587</ele>
        <time>2023-06-03T14:33:06Z</time>
      </trkpt>
      <trkpt lat="45.32886" lon="4.62442">
        <ele>588</ele>
        <time>2023-06-03T14:33:06Z</time>
      </trkpt>
      <trkpt lat="45.32824" lon="4.62384">
        <ele>590</ele>
        <time>2023-06-03T14:33:06Z</time>
      </trkpt>
      <trkpt lat="45.32812" lon="4.62351">
        <ele>593</ele>
        <time>2023-06-03T14:33:06Z</time>
      </trkpt>
      <trkpt lat="45.32804" lon="4.6234">
        <ele>594</ele>
        <time>2023-06-03T14:33:06Z</time>
      </trkpt>
      <trkpt lat="45.32765" lon="4.62318">
        <ele>595</ele>
        <time>2023-06-03T14:33:06Z</time>
      </trkpt>
      <trkpt lat="45.32749" lon="4.62302">
        <ele>595</ele>
        <time>2023-06-03T14:33:06Z</time>
      </trkpt>
      <trkpt lat="45.32735" lon="4.62276">
        <ele>595</ele>
        <time>2023-06-03T14:33:06Z</time>
      </trkpt>
      <trkpt lat="45.32726" lon="4.6225">
        <ele>595</ele>
        <time>2023-06-03T14:33:06Z</time>
      </trkpt>
      <trkpt lat="45.32726" lon="4.6225">
        <ele>593</ele>
        <time>2023-06-03T14:33:06Z</time>
      </trkpt>
      <trkpt lat="45.32719" lon="4.6223">
        <ele>593</ele>
        <time>2023-06-03T14:33:06Z</time>
      </trkpt>
      <trkpt lat="45.32714" lon="4.62222">
        <ele>593</ele>
        <time>2023-06-03T14:33:06Z</time>
      </trkpt>
      <trkpt lat="45.32706" lon="4.62216">
        <ele>593</ele>
        <time>2023-06-03T14:33:06Z</time>
      </trkpt>
      <trkpt lat="45.32697" lon="4.62214">
        <ele>593</ele>
        <time>2023-06-03T14:33:06Z</time>
      </trkpt>
      <trkpt lat="45.32642" lon="4.62233">
        <ele>593</ele>
        <time>2023-06-03T14:33:06Z</time>
      </trkpt>
      <trkpt lat="45.32587" lon="4.6222">
        <ele>595</ele>
        <time>2023-06-03T14:33:06Z</time>
      </trkpt>
      <trkpt lat="45.32576" lon="4.62214">
        <ele>597</ele>
        <time>2023-06-03T14:33:06Z</time>
      </trkpt>
      <trkpt lat="45.32553" lon="4.62189">
        <ele>598</ele>
        <time>2023-06-03T14:33:06Z</time>
      </trkpt>
      <trkpt lat="45.32547" lon="4.62177">
        <ele>600</ele>
        <time>2023-06-03T14:33:06Z</time>
      </trkpt>
      <trkpt lat="45.32491" lon="4.6205">
        <ele>604</ele>
        <time>2023-06-03T14:33:06Z</time>
      </trkpt>
      <trkpt lat="45.32453" lon="4.61986">
        <ele>609</ele>
        <time>2023-06-03T14:33:06Z</time>
      </trkpt>
      <trkpt lat="45.32547" lon="4.61916">
        <ele>617</ele>
        <time>2023-06-03T14:33:06Z</time>
      </trkpt>
      <trkpt lat="45.32579" lon="4.61874">
        <ele>623</ele>
        <time>2023-06-03T14:33:06Z</time>
      </trkpt>
      <trkpt lat="45.32515" lon="4.61838">
        <ele>625</ele>
        <time>2023-06-03T14:33:06Z</time>
      </trkpt>
      <trkpt lat="45.32298" lon="4.61587">
        <ele>611</ele>
        <time>2023-06-03T14:33:06Z</time>
      </trkpt>
      <trkpt lat="45.32279" lon="4.61551">
        <ele>603</ele>
        <time>2023-06-03T14:33:06Z</time>
      </trkpt>
      <trkpt lat="45.32288" lon="4.61543">
        <ele>587</ele>
        <time>2023-06-03T14:33:06Z</time>
      </trkpt>
    </trkseg>
  </trk>
</gpx>